DAL179 MMTG-MHTG

Flight info

Callsign DAL179
Flight time 1h 3m
Altitude 35000
Route KESLI1 KESLI UA552 LEPAX DCT TALAG TALAG1A
Aircraft B738/M-SDE2E3FGHIRWXY/LB1

Departure

Time 2026-04-25 09:06
Airport Angel Albino Corzo International Airport (MMTG)

Arrival

Time 2026-04-25 10:10
Airport Toncontín Airport (MHTG)
Time Latitude Longitude Altitude Speed Heading
2026-04-25 08:39 16.55982 -93.02012 1514 ft 0 kts 355°
2026-04-25 08:58 16.55967 -93.02010 1514 ft 4 kts 335°
2026-04-25 08:58 16.55953 -93.01995 1512 ft 4 kts 262°
2026-04-25 08:58 16.55957 -93.01982 1513 ft 1 kts 238°
2026-04-25 09:01 16.55957 -93.01983 1513 ft 0 kts 238°
2026-04-25 09:01 16.55949 -93.01996 1511 ft 5 kts 238°
2026-04-25 09:01 16.55924 -93.02035 1513 ft 8 kts 237°
2026-04-25 09:02 16.55900 -93.02096 1513 ft 10 kts 282°
2026-04-25 09:02 16.55954 -93.02147 1511 ft 11 kts 327°
2026-04-25 09:02 16.56021 -93.02190 1513 ft 11 kts 328°
2026-04-25 09:02 16.56027 -93.02257 1513 ft 12 kts 248°
2026-04-25 09:03 16.56047 -93.02347 1511 ft 15 kts 298°
2026-04-25 09:03 16.56100 -93.02450 1510 ft 17 kts 299°
2026-04-25 09:03 16.56164 -93.02564 1511 ft 19 kts 305°
2026-04-25 09:03 16.56256 -93.02656 1512 ft 19 kts 326°
2026-04-25 09:04 16.56380 -93.02738 1513 ft 23 kts 328°
2026-04-25 09:04 16.56513 -93.02823 1514 ft 26 kts 328°
2026-04-25 09:04 16.56684 -93.02932 1511 ft 31 kts 328°
2026-04-25 09:04 16.56868 -93.03049 1514 ft 31 kts 328°
2026-04-25 09:05 16.57041 -93.03158 1514 ft 19 kts 338°
2026-04-25 09:05 16.57143 -93.03155 1513 ft 14 kts 329°
2026-04-25 09:05 16.57132 -93.03208 1513 ft 5 kts 201°
2026-04-25 09:05 16.57095 -93.03189 1514 ft 8 kts 149°
2026-04-25 09:06 16.56869 -93.03045 1514 ft 73 kts 148°
2026-04-25 09:06 16.56242 -93.02645 1510 ft 136 kts 148°
2026-04-25 09:06 16.55299 -93.02040 1712 ft 170 kts 147°
2026-04-25 09:06 16.54293 -93.01365 2448 ft 177 kts 147°
2026-04-25 09:07 16.53259 -93.00678 3188 ft 177 kts 147°
2026-04-25 09:07 16.52170 -92.99957 3732 ft 197 kts 147°
2026-04-25 09:07 16.50966 -92.99160 4203 ft 212 kts 148°
2026-04-25 09:07 16.49680 -92.98316 4694 ft 225 kts 149°
2026-04-25 09:08 16.48306 -92.97422 5148 ft 241 kts 149°
2026-04-25 09:08 16.46799 -92.96445 5451 ft 267 kts 149°
2026-04-25 09:08 16.45203 -92.95407 6207 ft 273 kts 149°
2026-04-25 09:08 16.43589 -92.94356 7026 ft 276 kts 149°
2026-04-25 09:09 16.41961 -92.93296 7859 ft 277 kts 149°
2026-04-25 09:09 16.40314 -92.92224 8649 ft 282 kts 148°
2026-04-25 09:09 16.38811 -92.90886 9303 ft 290 kts 122°
2026-04-25 09:09 16.38218 -92.88908 10128 ft 290 kts 89°
2026-04-25 09:10 16.38561 -92.86797 10572 ft 307 kts 75°
2026-04-25 09:10 16.39016 -92.84537 10755 ft 330 kts 81°
2026-04-25 09:10 16.39218 -92.82097 11128 ft 344 kts 91°
2026-04-25 09:10 16.38639 -92.79665 11670 ft 354 kts 117°
2026-04-25 09:11 16.35601 -92.75559 12989 ft 364 kts 130°
2026-04-25 09:11 16.33944 -92.73586 13601 ft 370 kts 129°
2026-04-25 09:11 16.32273 -92.71525 14166 ft 374 kts 128°
2026-04-25 09:12 16.30612 -92.69430 14816 ft 376 kts 128°
2026-04-25 09:12 16.28949 -92.67320 15427 ft 379 kts 128°
2026-04-25 09:12 16.27267 -92.65194 16007 ft 382 kts 128°
2026-04-25 09:12 16.25567 -92.63048 16583 ft 386 kts 128°
2026-04-25 09:13 16.23853 -92.60884 17139 ft 390 kts 128°
2026-04-25 09:13 16.22683 -92.59409 17530 ft 392 kts 128°
2026-04-25 09:13 16.20517 -92.56677 18208 ft 397 kts 128°
2026-04-25 09:13 16.18754 -92.54454 18656 ft 400 kts 128°
2026-04-25 09:14 16.16976 -92.52212 19126 ft 403 kts 128°
2026-04-25 09:14 16.15182 -92.49950 19585 ft 407 kts 128°
2026-04-25 09:14 16.13375 -92.47674 20032 ft 410 kts 128°
2026-04-25 09:14 16.11552 -92.45377 20474 ft 414 kts 128°
2026-04-25 09:15 16.09711 -92.43059 20918 ft 417 kts 128°
2026-04-25 09:15 16.07858 -92.40726 21353 ft 420 kts 128°
2026-04-25 09:15 16.05988 -92.38372 21789 ft 423 kts 128°
2026-04-25 09:15 16.04108 -92.36007 22233 ft 426 kts 128°
2026-04-25 09:16 16.02217 -92.33629 22670 ft 428 kts 128°
2026-04-25 09:16 16.00311 -92.31233 23088 ft 431 kts 128°
2026-04-25 09:16 15.98393 -92.28822 23491 ft 435 kts 128°
2026-04-25 09:16 15.96456 -92.26388 23801 ft 439 kts 127°
2026-04-25 09:17 15.92546 -92.21478 24495 ft 443 kts 128°
2026-04-25 09:17 15.90580 -92.19010 24872 ft 445 kts 128°
2026-04-25 09:17 15.88601 -92.16528 25220 ft 447 kts 128°
2026-04-25 09:18 15.86614 -92.14035 25573 ft 449 kts 128°
2026-04-25 09:18 15.84617 -92.11531 25915 ft 451 kts 128°
2026-04-25 09:18 15.83291 -92.09869 26142 ft 452 kts 128°
2026-04-25 09:18 15.81278 -92.07346 26479 ft 454 kts 128°
2026-04-25 09:19 15.79257 -92.04815 26805 ft 457 kts 128°
2026-04-25 09:19 15.77226 -92.02270 27141 ft 459 kts 128°
2026-04-25 09:19 15.75183 -91.99711 27464 ft 461 kts 128°
2026-04-25 09:19 15.73133 -91.97145 27790 ft 463 kts 128°
2026-04-25 09:20 15.71074 -91.94570 28112 ft 465 kts 128°
2026-04-25 09:20 15.69003 -91.91979 28416 ft 467 kts 128°
2026-04-25 09:20 15.66927 -91.89381 28720 ft 469 kts 128°
2026-04-25 09:20 15.64841 -91.86771 29007 ft 471 kts 128°
2026-04-25 09:21 15.62741 -91.84144 29329 ft 473 kts 128°
2026-04-25 09:21 15.60641 -91.81516 29673 ft 474 kts 129°
2026-04-25 09:21 15.58533 -91.78881 29986 ft 475 kts 129°
2026-04-25 09:21 15.56424 -91.76244 30287 ft 475 kts 129°
2026-04-25 09:22 15.54315 -91.73610 30642 ft 474 kts 129°
2026-04-25 09:22 15.52210 -91.70980 31014 ft 473 kts 129°
2026-04-25 09:22 15.50114 -91.68362 31383 ft 472 kts 129°
2026-04-25 09:22 15.48020 -91.65749 31740 ft 471 kts 129°
2026-04-25 09:23 15.45926 -91.63135 32105 ft 470 kts 129°
2026-04-25 09:23 15.43840 -91.60534 32472 ft 469 kts 129°
2026-04-25 09:23 15.41756 -91.57934 32838 ft 468 kts 129°
2026-04-25 09:23 15.39678 -91.55344 33193 ft 467 kts 129°
2026-04-25 09:24 15.37603 -91.52757 33533 ft 467 kts 129°
2026-04-25 09:24 15.35528 -91.50171 33829 ft 467 kts 129°
2026-04-25 09:24 15.33445 -91.47576 34101 ft 468 kts 129°
2026-04-25 09:24 15.31364 -91.44988 34394 ft 467 kts 129°
2026-04-25 09:25 15.29284 -91.42405 34709 ft 466 kts 129°
2026-04-25 09:25 15.27214 -91.39838 35019 ft 463 kts 129°
2026-04-25 09:25 15.25171 -91.37306 35038 ft 465 kts 129°
2026-04-25 09:26 15.21015 -91.32154 35059 ft 461 kts 129°
2026-04-25 09:26 15.16910 -91.27068 35060 ft 459 kts 129°
2026-04-25 09:27 15.12823 -91.22005 35058 ft 457 kts 129°
2026-04-25 09:27 15.08773 -91.16992 35056 ft 457 kts 129°
2026-04-25 09:28 15.04701 -91.11954 35079 ft 457 kts 129°
2026-04-25 09:28 15.00713 -91.07024 35080 ft 457 kts 129°
2026-04-25 09:29 14.96702 -91.02063 35075 ft 459 kts 129°
2026-04-25 09:29 14.92605 -90.96991 35098 ft 460 kts 129°
2026-04-25 09:30 14.88493 -90.91904 35100 ft 462 kts 129°
2026-04-25 09:30 14.84366 -90.86803 35106 ft 463 kts 129°
2026-04-25 09:31 14.80229 -90.81693 35105 ft 464 kts 129°
2026-04-25 09:31 14.76080 -90.76570 35147 ft 465 kts 129°
2026-04-25 09:32 14.71933 -90.71454 35187 ft 465 kts 129°
2026-04-25 09:32 14.67782 -90.66336 35201 ft 465 kts 129°
2026-04-25 09:33 14.63637 -90.61226 35213 ft 464 kts 129°
2026-04-25 09:33 14.59541 -90.56087 35204 ft 462 kts 123°
2026-04-25 09:34 14.56759 -90.50171 35212 ft 458 kts 105°
2026-04-25 09:34 14.55572 -90.43751 35213 ft 455 kts 97°
2026-04-25 09:35 14.54626 -90.37298 35207 ft 455 kts 97°
2026-04-25 09:35 14.53633 -90.30849 35198 ft 455 kts 98°
2026-04-25 09:36 14.52608 -90.24410 35173 ft 455 kts 98°
2026-04-25 09:36 14.51577 -90.17975 35147 ft 455 kts 98°
2026-04-25 09:37 14.50545 -90.11529 35135 ft 456 kts 98°
2026-04-25 09:37 14.49512 -90.05072 35146 ft 456 kts 98°
2026-04-25 09:38 14.48496 -89.98653 35131 ft 457 kts 98°
2026-04-25 09:38 14.47470 -89.92177 35132 ft 458 kts 98°
2026-04-25 09:39 14.46441 -89.85693 35131 ft 458 kts 97°
2026-04-25 09:39 14.45407 -89.79200 35135 ft 459 kts 98°
2026-04-25 09:40 14.43850 -89.69442 35128 ft 460 kts 98°
2026-04-25 09:40 14.42809 -89.62931 35122 ft 460 kts 98°
2026-04-25 09:41 14.41765 -89.56420 35123 ft 460 kts 98°
2026-04-25 09:41 14.40720 -89.49907 35123 ft 460 kts 98°
2026-04-25 09:42 14.39674 -89.43398 35115 ft 460 kts 98°
2026-04-25 09:42 14.38628 -89.36902 35119 ft 459 kts 98°
2026-04-25 09:43 14.37582 -89.30415 35125 ft 458 kts 98°
2026-04-25 09:43 14.36536 -89.23942 35118 ft 457 kts 98°
2026-04-25 09:44 14.35490 -89.17477 35123 ft 457 kts 98°
2026-04-25 09:44 14.34434 -89.11008 35118 ft 457 kts 98°
2026-04-25 09:45 14.33377 -89.04584 35123 ft 457 kts 98°
2026-04-25 09:45 14.32315 -88.98124 35123 ft 457 kts 98°
2026-04-25 09:46 14.31257 -88.91719 34750 ft 448 kts 98°
2026-04-25 09:46 14.30733 -88.88577 34420 ft 443 kts 98°
2026-04-25 09:46 14.30213 -88.85457 34044 ft 440 kts 98°
2026-04-25 09:47 14.29698 -88.82361 33617 ft 437 kts 98°
2026-04-25 09:47 14.29184 -88.79280 33215 ft 435 kts 98°
2026-04-25 09:47 14.28674 -88.76218 32807 ft 432 kts 98°
2026-04-25 09:47 14.28167 -88.73178 32419 ft 429 kts 98°
2026-04-25 09:48 14.27662 -88.70152 32032 ft 427 kts 98°
2026-04-25 09:48 14.27161 -88.67147 31658 ft 424 kts 98°
2026-04-25 09:48 14.26662 -88.64160 31290 ft 422 kts 98°
2026-04-25 09:48 14.26163 -88.61182 30898 ft 421 kts 98°
2026-04-25 09:49 14.25670 -88.58216 30506 ft 420 kts 98°
2026-04-25 09:49 14.25182 -88.55256 30109 ft 419 kts 98°
2026-04-25 09:49 14.24697 -88.52301 29691 ft 417 kts 98°
2026-04-25 09:49 14.24215 -88.49368 29282 ft 414 kts 98°
2026-04-25 09:50 14.23735 -88.46450 28884 ft 411 kts 98°
2026-04-25 09:50 14.23258 -88.43557 28493 ft 408 kts 98°
2026-04-25 09:50 14.22784 -88.40684 28116 ft 406 kts 98°
2026-04-25 09:50 14.22312 -88.37827 27736 ft 403 kts 97°
2026-04-25 09:51 14.21842 -88.34985 27360 ft 400 kts 97°
2026-04-25 09:51 14.21376 -88.32167 26992 ft 398 kts 97°
2026-04-25 09:51 14.20912 -88.29361 26605 ft 396 kts 97°
2026-04-25 09:51 14.20450 -88.26571 26227 ft 394 kts 97°
2026-04-25 09:52 14.19989 -88.23790 25870 ft 392 kts 97°
2026-04-25 09:52 14.19530 -88.21024 25502 ft 391 kts 97°
2026-04-25 09:52 14.19071 -88.18263 25124 ft 390 kts 97°
2026-04-25 09:52 14.18615 -88.15514 24733 ft 389 kts 96°
2026-04-25 09:53 14.18159 -88.12773 24368 ft 387 kts 96°
2026-04-25 09:53 14.17706 -88.10049 23984 ft 382 kts 96°
2026-04-25 09:53 14.17262 -88.07389 23628 ft 373 kts 96°
2026-04-25 09:53 14.16824 -88.04771 23232 ft 370 kts 96°
2026-04-25 09:54 14.16390 -88.02166 22850 ft 368 kts 96°
2026-04-25 09:54 14.15958 -87.99569 22471 ft 367 kts 96°
2026-04-25 09:54 14.15528 -87.96987 22111 ft 365 kts 96°
2026-04-25 09:54 14.15099 -87.94416 21760 ft 363 kts 97°
2026-04-25 09:55 14.14677 -87.91892 21413 ft 361 kts 97°
2026-04-25 09:55 14.14252 -87.89349 21069 ft 360 kts 97°
2026-04-25 09:55 14.13822 -87.86778 20714 ft 358 kts 97°
2026-04-25 09:55 14.13405 -87.84287 20352 ft 357 kts 97°
2026-04-25 09:56 14.12984 -87.81773 20009 ft 356 kts 98°
2026-04-25 09:56 14.12564 -87.79269 19666 ft 354 kts 98°
2026-04-25 09:56 14.12146 -87.76783 19260 ft 349 kts 98°
2026-04-25 09:56 14.11738 -87.74349 18932 ft 343 kts 98°
2026-04-25 09:57 14.11330 -87.71923 18584 ft 343 kts 98°
2026-04-25 09:57 14.10923 -87.69501 18225 ft 344 kts 99°
2026-04-25 09:57 14.10568 -87.67069 17837 ft 342 kts 91°
2026-04-25 09:57 14.10863 -87.64663 17492 ft 337 kts 70°
2026-04-25 09:58 14.11865 -87.62511 17173 ft 332 kts 55°
2026-04-25 09:58 14.13147 -87.60542 16839 ft 331 kts 53°
2026-04-25 09:58 14.14460 -87.58599 16492 ft 330 kts 53°
2026-04-25 09:58 14.15770 -87.56666 16167 ft 329 kts 53°
2026-04-25 09:59 14.17069 -87.54736 15841 ft 327 kts 53°
2026-04-25 09:59 14.18360 -87.52804 15517 ft 326 kts 53°
2026-04-25 09:59 14.19643 -87.50874 15189 ft 326 kts 54°
2026-04-25 09:59 14.20915 -87.48951 14865 ft 325 kts 54°
2026-04-25 10:00 14.22176 -87.47042 14526 ft 319 kts 54°
2026-04-25 10:00 14.23407 -87.45174 14217 ft 313 kts 54°
2026-04-25 10:00 14.24631 -87.43316 13903 ft 313 kts 54°
2026-04-25 10:00 14.25854 -87.41459 13555 ft 313 kts 54°
2026-04-25 10:01 14.27074 -87.39606 13223 ft 311 kts 54°
2026-04-25 10:01 14.28285 -87.37766 12881 ft 309 kts 54°
2026-04-25 10:01 14.29478 -87.35952 12521 ft 302 kts 54°
2026-04-25 10:01 14.30656 -87.34161 12235 ft 301 kts 54°
2026-04-25 10:02 14.31826 -87.32381 11942 ft 300 kts 54°
2026-04-25 10:02 14.32992 -87.30608 11644 ft 298 kts 54°
2026-04-25 10:02 14.34154 -87.28840 11356 ft 297 kts 54°
2026-04-25 10:02 14.35310 -87.27080 11051 ft 297 kts 54°
2026-04-25 10:03 14.36467 -87.25321 10748 ft 296 kts 55°
2026-04-25 10:03 14.37623 -87.23559 10457 ft 296 kts 56°
2026-04-25 10:03 14.38400 -87.21615 10203 ft 292 kts 83°
2026-04-25 10:03 14.38235 -87.19594 10088 ft 279 kts 109°
2026-04-25 10:04 14.37302 -87.17880 9868 ft 275 kts 133°
2026-04-25 10:04 14.35775 -87.16688 9559 ft 280 kts 156°
2026-04-25 10:04 14.33922 -87.16165 9216 ft 274 kts 179°
2026-04-25 10:04 14.32083 -87.16335 8909 ft 266 kts 191°
2026-04-25 10:05 14.30857 -87.16555 8692 ft 263 kts 192°
2026-04-25 10:05 14.28506 -87.16987 8309 ft 254 kts 191°
2026-04-25 10:05 14.26811 -87.17329 7971 ft 244 kts 198°
2026-04-25 10:05 14.25311 -87.18084 7614 ft 237 kts 211°
2026-04-25 10:06 14.23896 -87.18914 7267 ft 231 kts 210°
2026-04-25 10:06 14.22514 -87.19701 6947 ft 223 kts 210°
2026-04-25 10:06 14.21175 -87.20455 6611 ft 216 kts 209°
2026-04-25 10:06 14.20290 -87.20938 6375 ft 209 kts 206°
2026-04-25 10:07 14.19004 -87.21438 6097 ft 193 kts 195°
2026-04-25 10:07 14.17712 -87.21681 5762 ft 186 kts 186°
2026-04-25 10:07 14.16450 -87.21706 5522 ft 174 kts 177°
2026-04-25 10:07 14.15291 -87.21556 5250 ft 164 kts 170°
2026-04-25 10:08 14.14166 -87.21342 4985 ft 164 kts 170°
2026-04-25 10:08 14.13049 -87.21128 4747 ft 163 kts 170°
2026-04-25 10:08 14.11936 -87.20916 4490 ft 162 kts 170°
2026-04-25 10:08 14.10831 -87.20706 4241 ft 161 kts 170°
2026-04-25 10:09 14.09716 -87.20608 3971 ft 162 kts 182°
2026-04-25 10:09 14.08583 -87.20792 3553 ft 167 kts 198°
2026-04-25 10:09 14.07526 -87.21216 3359 ft 159 kts 200°
2026-04-25 10:09 14.06513 -87.21563 3267 ft 144 kts 199°
2026-04-25 10:10 14.05697 -87.21854 3290 ft 95 kts 199°
2026-04-25 10:10 14.05286 -87.21996 3306 ft 22 kts 198°
2026-04-25 10:10 14.05198 -87.22009 3308 ft 7 kts 119°
2026-04-25 10:10 14.05225 -87.21988 3307 ft 7 kts 340°
2026-04-25 10:11 14.05274 -87.22004 3306 ft 9 kts 340°
2026-04-25 10:11 14.05333 -87.22047 3305 ft 13 kts 343°
2026-04-25 10:11 14.05439 -87.22037 3302 ft 18 kts 17°
2026-04-25 10:11 14.05568 -87.21993 3297 ft 21 kts 18°
2026-04-25 10:12 14.05715 -87.21943 3290 ft 18 kts 20°
2026-04-25 10:12 14.05832 -87.21900 3284 ft 19 kts 20°
2026-04-25 10:12 14.06001 -87.21838 3275 ft 7 kts 20°
2026-04-25 10:13 14.06049 -87.21862 3271 ft 11 kts 299°
2026-04-25 10:13 14.06061 -87.21892 3272 ft 0 kts 290°
2026-04-25 10:14 14.06100 -87.21864 3273 ft 0 kts 288°